TimeCDT,TemperatureF,Dew PointF,Humidity,Sea Level PressureIn,VisibilityMPH,Wind Direction,Wind SpeedMPH,Gust SpeedMPH,PrecipitationIn,Events,Conditions,WindDirDegrees,DateUTC
12:53 AM,75.0,72.0,90,30.20,10.0,SE,3.5,-,N/A,,Clear,130,2013-07-16 05:53:00
1:53 AM,75.0,71.1,87,30.19,10.0,SSE,4.6,-,N/A,,Clear,150,2013-07-16 06:53:00
2:53 AM,73.0,71.1,93,30.20,10.0,SSE,3.5,-,N/A,,Scattered Clouds,150,2013-07-16 07:53:00
3:53 AM,73.0,71.1,93,30.20,10.0,SE,3.5,-,N/A,,Overcast,140,2013-07-16 08:53:00
4:53 AM,73.9,71.1,91,30.21,10.0,SSE,4.6,-,N/A,,Mostly Cloudy,160,2013-07-16 09:53:00
5:53 AM,70.0,70.0,100,30.22,8.0,SE,3.5,-,N/A,,Clear,130,2013-07-16 10:53:00
6:27 AM,69.8,69.8,100,30.24,6.0,Variable,3.5,32.2,N/A,,Clear,0,2013-07-16 11:27:00
6:53 AM,73.0,71.1,93,30.22,9.0,SSE,5.8,-,N/A,,Clear,150,2013-07-16 11:53:00
7:53 AM,75.9,72.0,87,30.23,10.0,SSE,5.8,-,N/A,,Clear,160,2013-07-16 12:53:00
8:53 AM,80.1,73.0,79,30.25,10.0,SSW,8.1,-,N/A,,Clear,200,2013-07-16 13:53:00
9:53 AM,82.0,73.0,74,30.25,10.0,South,6.9,-,N/A,,Clear,190,2013-07-16 14:53:00
10:53 AM,84.0,72.0,67,30.25,10.0,SSW,8.1,-,N/A,,Clear,200,2013-07-16 15:53:00
11:53 AM,86.0,73.0,65,30.25,10.0,SW,6.9,-,N/A,,Partly Cloudy,220,2013-07-16 16:53:00
12:53 PM,88.0,71.1,57,30.24,10.0,SW,8.1,-,N/A,,Partly Cloudy,220,2013-07-16 17:53:00
1:53 PM,89.1,71.1,55,30.23,10.0,South,9.2,-,N/A,,Partly Cloudy,180,2013-07-16 18:53:00
2:53 PM,91.0,72.0,53,30.22,10.0,SSE,10.4,-,N/A,,Partly Cloudy,160,2013-07-16 19:53:00
3:53 PM,90.0,71.1,54,30.22,10.0,SSW,9.2,-,N/A,,Clear,200,2013-07-16 20:53:00
4:53 PM,90.0,71.1,54,30.21,10.0,South,9.2,-,N/A,,Clear,180,2013-07-16 21:53:00
5:53 PM,90.0,73.0,57,30.21,10.0,SSE,11.5,-,N/A,,Clear,150,2013-07-16 22:53:00
6:53 PM,89.1,73.0,59,30.20,10.0,SSE,9.2,-,N/A,,Partly Cloudy,150,2013-07-16 23:53:00
7:53 PM,86.0,72.0,63,30.20,10.0,South,6.9,-,N/A,,Clear,170,2013-07-17 00:53:00
8:53 PM,82.9,73.0,72,30.21,10.0,SSE,4.6,-,N/A,,Clear,160,2013-07-17 01:53:00
9:53 PM,80.1,73.0,79,30.23,10.0,SE,3.5,-,N/A,,Clear,140,2013-07-17 02:53:00
10:53 PM,75.9,73.0,91,30.24,10.0,SE,5.8,-,N/A,,Clear,140,2013-07-17 03:53:00
11:53 PM,75.0,73.0,94,30.25,10.0,SSE,5.8,-,N/A,,Clear,150,2013-07-17 04:53:00